Location: 22
(39.7117°N, 89.5929°W)
Time: 10:13:20
(UTC-05:00)

Transit 2A - Pass Details

Date: 10 August 2024
Orbit: 590 x 961 km, 66.7° (Epoch: 13 September)

Event Time Altitude Azimuth Distance (km) Brightness Sun altitude
Rises 12:23:09 0° 335° (NNW) 3,645 9.2 64.0°
Reaches altitude 10° 12:25:52 10° 342° (NNW) 2,702 8.7 64.2°
Maximum altitude 12:31:56 44° 54° (NE) 1,298 7.7 64.6°
Drops below altitude 10° 12:37:46 10° 125° (SE) 2,605 9.2 64.9°
Sets 12:40:20 0° 132° (SE) 3,502 9.7 65.0°
